Time,TemperatureF,DewpointF,PressureIn,WindDirection,WindDirectionDegrees,WindSpeedMPH,WindSpeedGustMPH,Humidity,HourlyPrecipIn,Conditions,Clouds,dailyrainin,SolarRadiationWatts/m^2,SoftwareType,DateUTC
2013-09-25 00:00:00,47.2,43.2,29.85,East,80,0.0,0.0,86,0.00,,CLR,0.00,0.00,VWS V14.01,2013-09-25 04:00:00,
2013-09-25 00:01:00,45.8,42.8,29.85,East,80,0.0,0.0,89,0.00,,CLR,0.00,0.00,VWS V14.01,2013-09-25 04:01:00,
2013-09-25 00:02:00,45.8,42.8,29.86,East,80,0.0,0.0,89,0.00,,CLR,0.00,0.00,VWS V14.01,2013-09-25 04:02:00,
2013-09-25 00:04:00,45.8,42.8,29.85,East,80,0.0,0.0,89,0.00,,CLR,0.00,0.00,VWS V14.01,2013-09-25 04:04:00,
2013-09-25 00:05:00,47.1,43.1,29.84,East,80,0.0,0.0,86,0.00,,CLR,0.00,0.00,VWS V14.01,2013-09-25 04:05:00,
2013-09-25 00:10:00,45.7,42.7,29.84,East,80,0.0,0.0,89,0.00,,CLR,0.00,0.00,VWS V14.01,2013-09-25 04:10:00,
2013-09-25 00:15:00,45.5,42.7,29.86,East,80,0.0,0.0,90,0.00,,CLR,0.00,0.00,VWS V14.01,2013-09-25 04:15:00,
2013-09-25 00:20:00,45.5,42.7,29.84,East,80,0.0,0.0,90,0.00,,CLR,0.00,0.00,VWS V14.01,2013-09-25 04:20:00,
2013-09-25 00:25:00,45.4,42.6,29.85,East,80,0.0,0.0,90,0.00,,CLR,0.00,0.00,VWS V14.01,2013-09-25 04:25:00,
2013-09-25 00:30:00,45.3,42.5,29.85,East,80,0.0,0.0,90,0.00,,CLR,0.00,0.00,VWS V14.01,2013-09-25 04:30:00,
2013-09-25 00:35:00,45.3,42.5,29.84,East,80,0.0,0.0,90,0.00,,CLR,0.00,0.00,VWS V14.01,2013-09-25 04:35:00,
2013-09-25 00:40:00,45.2,42.5,29.86,East,80,0.0,0.0,90,0.00,,CLR,0.00,0.00,VWS V14.01,2013-09-25 04:40:00,
2013-09-25 00:45:00,45.1,42.3,29.84,East,80,0.0,0.0,90,0.00,,CLR,0.00,0.00,VWS V14.01,2013-09-25 04:45:00,
2013-09-25 00:50:00,46.1,43.0,29.85,East,80,0.0,1.0,89,0.00,,CLR,0.00,0.00,VWS V14.01,2013-09-25 04:50:00,
2013-09-25 00:51:00,44.9,42.2,29.86,East,80,0.0,0.0,90,0.00,,CLR,0.00,0.00,VWS V14.01,2013-09-25 04:51:00,
2013-09-25 00:55:00,46.0,43.0,29.85,East,80,0.0,1.0,89,0.00,,CLR,0.00,0.00,VWS V14.01,2013-09-25 04:55:00,
2013-09-25 00:56:00,44.8,42.0,29.84,East,80,0.0,0.0,90,0.00,,CLR,0.00,0.00,VWS V14.01,2013-09-25 04:56:00,
2013-09-25 01:00:00,45.9,42.8,29.84,East,80,0.0,0.0,89,0.00,,CLR,0.00,0.00,VWS V14.01,2013-09-25 05:00:00,
2013-09-25 01:01:00,44.7,42.0,29.85,East,80,0.0,0.0,90,0.00,,CLR,0.00,0.00,VWS V14.01,2013-09-25 05:01:00,
2013-09-25 01:05:00,45.8,42.8,29.86,East,80,0.0,0.0,89,0.00,,CLR,0.00,0.00,VWS V14.01,2013-09-25 05:05:00,
2013-09-25 01:06:00,44.6,42.1,29.85,East,80,0.0,0.0,91,0.00,,CLR,0.00,0.00,VWS V14.01,2013-09-25 05:06:00,
2013-09-25 01:10:00,45.8,43.0,29.84,East,80,0.0,0.0,90,0.00,,CLR,0.00,0.00,VWS V14.01,2013-09-25 05:10:00,
2013-09-25 01:11:00,44.6,42.1,29.84,East,80,0.0,0.0,91,0.00,,CLR,0.00,0.00,VWS V14.01,2013-09-25 05:11:00,
2013-09-25 01:15:00,45.6,42.5,29.86,East,80,0.0,0.0,89,0.00,,CLR,0.00,0.00,VWS V14.01,2013-09-25 05:15:00,
2013-09-25 01:16:00,44.6,42.1,29.86,East,80,0.0,0.0,91,0.00,,CLR,0.00,0.00,VWS V14.01,2013-09-25 05:16:00,
2013-09-25 01:20:00,45.5,42.5,29.86,East,80,0.0,0.0,89,0.00,,CLR,0.00,0.00,VWS V14.01,2013-09-25 05:20:00,
2013-09-25 01:21:00,44.6,42.1,29.86,East,80,0.0,1.0,91,0.00,,CLR,0.00,0.00,VWS V14.01,2013-09-25 05:21:00,
2013-09-25 01:25:00,45.5,42.7,29.84,East,80,0.0,0.0,90,0.00,,CLR,0.00,0.00,VWS V14.01,2013-09-25 05:25:00,
2013-09-25 01:26:00,44.7,42.2,29.84,East,80,0.0,1.0,91,0.00,,CLR,0.00,0.00,VWS V14.01,2013-09-25 05:26:00,
2013-09-25 01:30:00,45.4,42.6,29.85,East,80,0.0,0.0,90,0.00,,CLR,0.00,0.00,VWS V14.01,2013-09-25 05:30:00,
2013-09-25 01:31:00,44.7,42.2,29.86,East,80,0.0,1.0,91,0.00,,CLR,0.00,0.00,VWS V14.01,2013-09-25 05:31:00,
2013-09-25 01:35:00,45.3,42.5,29.84,East,80,0.0,0.0,90,0.00,,CLR,0.00,0.00,VWS V14.01,2013-09-25 05:35:00,
2013-09-25 01:36:00,44.7,42.2,29.84,East,80,0.0,0.0,91,0.00,,CLR,0.00,0.00,VWS V14.01,2013-09-25 05:36:00,
2013-09-25 01:40:00,45.2,42.5,29.85,East,80,0.0,0.0,90,0.00,,CLR,0.00,0.00,VWS V14.01,2013-09-25 05:40:00,
2013-09-25 01:42:00,44.7,42.2,29.84,East,80,0.0,1.0,91,0.00,,CLR,0.00,0.00,VWS V14.01,2013-09-25 05:42:00,
2013-09-25 01:45:00,45.1,42.3,29.86,East,80,0.0,0.0,90,0.00,,CLR,0.00,0.00,VWS V14.01,2013-09-25 05:45:00,
2013-09-25 01:47:00,44.8,42.3,29.85,East,80,0.0,1.0,91,0.00,,CLR,0.00,0.00,VWS V14.01,2013-09-25 05:47:00,
2013-09-25 01:50:00,45.0,42.2,29.84,East,80,0.0,0.0,90,0.00,,CLR,0.00,0.00,VWS V14.01,2013-09-25 05:50:00,
2013-09-25 01:52:00,44.9,42.4,29.84,East,80,0.0,1.0,91,0.00,,CLR,0.00,0.00,VWS V14.01,2013-09-25 05:52:00,
2013-09-25 01:55:00,44.9,42.2,29.86,East,80,0.0,0.0,90,0.00,,CLR,0.00,0.00,VWS V14.01,2013-09-25 05:55:00,
2013-09-25 01:57:00,45.0,42.2,29.85,East,80,0.0,0.0,90,0.00,,CLR,0.00,0.00,VWS V14.01,2013-09-25 05:57:00,
2013-09-25 02:00:00,44.8,42.0,29.84,East,80,0.0,0.0,90,0.00,,CLR,0.00,0.00,VWS V14.01,2013-09-25 06:00:00,
2013-09-25 02:02:00,45.1,42.3,29.83,East,80,2.0,2.0,90,0.00,,CLR,0.00,0.00,VWS V14.01,2013-09-25 06:02:00,
2013-09-25 02:05:00,44.6,41.8,29.85,East,80,0.0,0.0,90,0.00,,CLR,0.00,0.00,VWS V14.01,2013-09-25 06:05:00,
2013-09-25 02:07:00,45.2,42.5,29.83,East,80,2.0,2.0,90,0.00,,CLR,0.00,0.00,VWS V14.01,2013-09-25 06:07:00,
2013-09-25 02:10:00,44.6,42.1,29.85,East,80,0.0,0.0,91,0.00,,CLR,0.00,0.00,VWS V14.01,2013-09-25 06:10:00,
2013-09-25 02:12:00,45.2,42.2,29.85,East,80,0.0,0.0,89,0.00,,CLR,0.00,0.00,VWS V14.01,2013-09-25 06:12:00,
2013-09-25 02:15:00,44.6,42.1,29.84,East,80,0.0,0.0,91,0.00,,CLR,0.00,0.00,VWS V14.01,2013-09-25 06:15:00,
2013-09-25 02:17:00,45.1,42.1,29.83,East,80,0.0,1.0,89,0.00,,CLR,0.00,0.00,VWS V14.01,2013-09-25 06:17:00,
2013-09-25 02:20:00,44.6,42.1,29.86,East,80,1.0,2.0,91,0.00,,CLR,0.00,0.00,VWS V14.01,2013-09-25 06:20:00,
2013-09-25 02:22:00,45.1,42.1,29.83,East,80,0.0,1.0,89,0.00,,CLR,0.00,0.00,VWS V14.01,2013-09-25 06:22:00,
2013-09-25 02:25:00,44.6,42.1,29.86,East,80,0.0,1.0,91,0.00,,CLR,0.00,0.00,VWS V14.01,2013-09-25 06:25:00,
2013-09-25 02:27:00,45.0,42.0,29.84,East,80,0.0,0.0,89,0.00,,CLR,0.00,0.00,VWS V14.01,2013-09-25 06:27:00,
2013-09-25 02:30:00,44.7,42.2,29.84,East,80,0.0,1.0,91,0.00,,CLR,0.00,0.00,VWS V14.01,2013-09-25 06:30:00,
2013-09-25 02:32:00,45.0,42.0,29.83,East,80,0.0,0.0,89,0.00,,CLR,0.00,0.00,VWS V14.01,2013-09-25 06:32:00,
2013-09-25 02:35:00,44.7,42.2,29.86,East,80,0.0,1.0,91,0.00,,CLR,0.00,0.00,VWS V14.01,2013-09-25 06:35:00,
2013-09-25 02:37:00,45.0,42.0,29.84,East,80,0.0,0.0,89,0.00,,CLR,0.00,0.00,VWS V14.01,2013-09-25 06:37:00,
2013-09-25 02:40:00,44.7,42.2,29.84,East,80,0.0,0.0,91,0.00,,CLR,0.00,0.00,VWS V14.01,2013-09-25 06:40:00,
2013-09-25 02:43:00,44.9,41.9,29.83,East,80,0.0,0.0,89,0.00,,CLR,0.00,0.00,VWS V14.01,2013-09-25 06:43:00,
2013-09-25 02:45:00,44.7,42.2,29.84,East,80,0.0,1.0,91,0.00,,CLR,0.00,0.00,VWS V14.01,2013-09-25 06:45:00,
2013-09-25 02:48:00,44.9,41.9,29.84,East,80,0.0,0.0,89,0.00,,CLR,0.00,0.00,VWS V14.01,2013-09-25 06:48:00,
2013-09-25 02:50:00,44.8,42.3,29.85,East,80,0.0,1.0,91,0.00,,CLR,0.00,0.00,VWS V14.01,2013-09-25 06:50:00,
2013-09-25 02:53:00,44.9,42.2,29.84,East,80,0.0,0.0,90,0.00,,CLR,0.00,0.00,VWS V14.01,2013-09-25 06:53:00,
2013-09-25 02:55:00,44.9,42.4,29.84,East,80,0.0,1.0,91,0.00,,CLR,0.00,0.00,VWS V14.01,2013-09-25 06:55:00,
2013-09-25 02:58:00,44.9,42.2,29.83,East,80,0.0,0.0,90,0.00,,CLR,0.00,0.00,VWS V14.01,2013-09-25 06:58:00,
2013-09-25 03:00:00,45.0,42.2,29.85,East,80,0.0,2.0,90,0.00,,CLR,0.00,0.00,VWS V14.01,2013-09-25 07:00:00,
2013-09-25 03:03:00,44.7,41.7,29.84,East,80,0.0,0.0,89,0.00,,CLR,0.00,0.00,VWS V14.01,2013-09-25 07:03:00,
2013-09-25 03:05:00,45.1,42.3,29.84,East,80,1.0,2.0,90,0.00,,CLR,0.00,0.00,VWS V14.01,2013-09-25 07:05:00,
2013-09-25 03:08:00,44.6,41.8,29.84,East,80,0.0,0.0,90,0.00,,CLR,0.00,0.00,VWS V14.01,2013-09-25 07:08:00,
2013-09-25 03:10:00,45.2,42.5,29.83,East,80,1.0,3.0,90,0.00,,CLR,0.00,0.00,VWS V14.01,2013-09-25 07:10:00,
2013-09-25 03:13:00,44.5,41.8,29.83,East,80,0.0,1.0,90,0.00,,CLR,0.00,0.00,VWS V14.01,2013-09-25 07:13:00,
2013-09-25 03:15:00,45.2,42.2,29.84,East,80,0.0,2.0,89,0.00,,CLR,0.00,0.00,VWS V14.01,2013-09-25 07:15:00,
2013-09-25 03:18:00,44.5,41.8,29.84,East,80,1.0,2.0,90,0.00,,CLR,0.00,0.00,VWS V14.01,2013-09-25 07:18:00,
2013-09-25 03:20:00,45.1,42.1,29.84,East,80,0.0,1.0,89,0.00,,CLR,0.00,0.00,VWS V14.01,2013-09-25 07:20:00,
2013-09-25 03:23:00,44.6,41.8,29.84,East,80,0.0,1.0,90,0.00,,CLR,0.00,0.00,VWS V14.01,2013-09-25 07:23:00,
2013-09-25 03:25:00,45.1,42.1,29.83,East,80,0.0,2.0,89,0.00,,CLR,0.00,0.00,VWS V14.01,2013-09-25 07:25:00,
2013-09-25 03:28:00,44.6,41.8,29.83,East,80,0.0,2.0,90,0.00,,CLR,0.00,0.00,VWS V14.01,2013-09-25 07:28:00,
2013-09-25 03:30:00,45.0,42.0,29.84,East,80,0.0,1.0,89,0.00,,CLR,0.00,0.00,VWS V14.01,2013-09-25 07:30:00,
2013-09-25 03:33:00,44.6,41.8,29.84,East,80,1.0,1.0,90,0.00,,CLR,0.00,0.00,VWS V14.01,2013-09-25 07:33:00,
2013-09-25 03:35:00,45.0,42.0,29.83,East,80,0.0,2.0,89,0.00,,CLR,0.00,0.00,VWS V14.01,2013-09-25 07:35:00,
2013-09-25 03:39:00,44.6,41.8,29.82,NW,307,1.0,5.0,90,0.00,,CLR,0.00,0.00,VWS V14.01,2013-09-25 07:39:00,
2013-09-25 03:40:00,45.0,42.0,29.84,East,80,0.0,0.0,89,0.00,,CLR,0.00,0.00,VWS V14.01,2013-09-25 07:40:00,
2013-09-25 03:44:00,44.7,42.0,29.84,NW,307,1.0,2.0,90,0.00,,CLR,0.00,0.00,VWS V14.01,2013-09-25 07:44:00,
2013-09-25 03:45:00,44.9,41.9,29.84,East,80,0.0,0.0,89,0.00,,CLR,0.00,0.00,VWS V14.01,2013-09-25 07:45:00,
2013-09-25 03:49:00,44.8,41.8,29.82,NW,308,1.0,2.0,89,0.00,,CLR,0.00,0.00,VWS V14.01,2013-09-25 07:49:00,
2013-09-25 03:50:00,44.9,41.9,29.83,East,80,0.0,0.0,89,0.00,,CLR,0.00,0.00,VWS V14.01,2013-09-25 07:50:00,
2013-09-25 03:54:00,44.9,41.9,29.83,NW,308,2.0,3.0,89,0.00,,CLR,0.00,0.00,VWS V14.01,2013-09-25 07:54:00,
2013-09-25 03:55:00,44.9,42.2,29.84,East,80,0.0,1.0,90,0.00,,CLR,0.00,0.00,VWS V14.01,2013-09-25 07:55:00,
2013-09-25 03:59:00,45.0,42.0,29.84,NW,307,2.0,4.0,89,0.00,,CLR,0.00,0.00,VWS V14.01,2013-09-25 07:59:00,
2013-09-25 04:00:00,44.9,42.2,29.83,East,80,0.0,1.0,90,0.00,,CLR,0.00,0.00,VWS V14.01,2013-09-25 08:00:00,
2013-09-25 04:04:00,45.1,42.1,29.83,NW,307,2.0,3.0,89,0.00,,CLR,0.00,0.00,VWS V14.01,2013-09-25 08:04:00,
2013-09-25 04:05:00,44.7,41.7,29.83,East,80,0.0,0.0,89,0.00,,CLR,0.00,0.00,VWS V14.01,2013-09-25 08:05:00,
2013-09-25 04:09:00,45.1,41.8,29.84,NW,307,0.0,3.0,88,0.00,,CLR,0.00,0.00,VWS V14.01,2013-09-25 08:09:00,
2013-09-25 04:10:00,44.6,41.8,29.84,East,80,0.0,0.0,90,0.00,,CLR,0.00,0.00,VWS V14.01,2013-09-25 08:10:00,
2013-09-25 04:14:00,45.0,41.7,29.82,NW,307,0.0,4.0,88,0.00,,CLR,0.00,0.00,VWS V14.01,2013-09-25 08:14:00,
2013-09-25 04:15:00,44.5,41.8,29.83,East,80,0.0,1.0,90,0.00,,CLR,0.00,0.00,VWS V14.01,2013-09-25 08:15:00,
2013-09-25 04:19:00,44.9,41.6,29.84,NW,307,1.0,4.0,88,0.00,,CLR,0.00,0.00,VWS V14.01,2013-09-25 08:19:00,
2013-09-25 04:20:00,44.5,41.8,29.84,East,80,0.0,1.0,90,0.00,,CLR,0.00,0.00,VWS V14.01,2013-09-25 08:20:00,
2013-09-25 04:24:00,44.7,41.7,29.83,NW,307,3.0,3.0,89,0.00,,CLR,0.00,0.00,VWS V14.01,2013-09-25 08:24:00,
2013-09-25 04:25:00,44.5,41.8,29.84,East,80,1.0,2.0,90,0.00,,CLR,0.00,0.00,VWS V14.01,2013-09-25 08:25:00,
2013-09-25 04:29:00,44.5,41.5,29.84,NW,306,2.0,3.0,89,0.00,,CLR,0.00,0.00,VWS V14.01,2013-09-25 08:29:00,
2013-09-25 04:30:00,44.6,41.8,29.83,East,80,0.0,1.0,90,0.00,,CLR,0.00,0.00,VWS V14.01,2013-09-25 08:30:00,
2013-09-25 04:34:00,44.4,41.4,29.83,NW,307,0.0,3.0,89,0.00,,CLR,0.00,0.00,VWS V14.01,2013-09-25 08:34:00,
2013-09-25 04:35:00,44.6,41.8,29.84,East,80,0.0,2.0,90,0.00,,CLR,0.00,0.00,VWS V14.01,2013-09-25 08:35:00,
2013-09-25 04:39:00,44.3,41.3,29.84,NW,307,0.0,2.0,89,0.00,,CLR,0.00,0.00,VWS V14.01,2013-09-25 08:39:00,
2013-09-25 04:40:00,44.6,41.8,29.83,East,80,5.0,5.0,90,0.00,,CLR,0.00,0.00,VWS V14.01,2013-09-25 08:40:00,
2013-09-25 04:45:00,44.2,41.2,29.84,NW,307,1.0,2.0,89,0.00,,CLR,0.00,0.00,VWS V14.01,2013-09-25 08:45:00,
2013-09-25 04:50:00,44.1,41.1,29.83,NW,307,0.0,2.0,89,0.00,,CLR,0.00,0.00,VWS V14.01,2013-09-25 08:50:00,
2013-09-25 04:55:00,44.0,41.0,29.84,NW,307,0.0,1.0,89,0.00,,CLR,0.00,0.00,VWS V14.01,2013-09-25 08:55:00,
2013-09-25 05:00:00,43.9,41.2,29.82,NW,307,0.0,1.0,90,0.00,,CLR,0.00,0.00,VWS V14.01,2013-09-25 09:00:00,
2013-09-25 05:05:00,43.8,41.1,29.83,NW,307,0.0,1.0,90,0.00,,CLR,0.00,0.00,VWS V14.01,2013-09-25 09:05:00,
2013-09-25 05:10:00,43.7,41.0,29.83,NW,307,0.0,2.0,90,0.00,,CLR,0.00,0.00,VWS V14.01,2013-09-25 09:10:00,
2013-09-25 05:15:00,43.7,41.0,29.82,NW,306,0.0,0.0,90,0.00,,CLR,0.00,0.00,VWS V14.01,2013-09-25 09:15:00,
2013-09-25 05:20:00,43.7,41.0,29.83,NW,307,0.0,0.0,90,0.00,,CLR,0.00,0.00,VWS V14.01,2013-09-25 09:20:00,
2013-09-25 05:25:00,43.6,40.9,29.82,NW,307,0.0,1.0,90,0.00,,CLR,0.00,0.00,VWS V14.01,2013-09-25 09:25:00,
2013-09-25 05:30:00,43.6,40.9,29.82,NW,307,0.0,1.0,90,0.00,,CLR,0.00,0.00,VWS V14.01,2013-09-25 09:30:00,
2013-09-25 05:35:00,43.5,40.8,29.83,NW,306,0.0,0.0,90,0.00,,CLR,0.00,0.00,VWS V14.01,2013-09-25 09:35:00,
2013-09-25 05:40:00,43.5,40.8,29.82,NW,307,0.0,0.0,90,0.00,,CLR,0.00,0.00,VWS V14.01,2013-09-25 09:40:00,
2013-09-25 05:45:00,43.4,40.7,29.83,NW,307,0.0,0.0,90,0.00,,CLR,0.00,0.00,VWS V14.01,2013-09-25 09:45:00,
2013-09-25 05:50:00,43.3,40.6,29.82,NW,307,0.0,1.0,90,0.00,,CLR,0.00,0.00,VWS V14.01,2013-09-25 09:50:00,
2013-09-25 05:55:00,43.3,40.6,29.83,NW,307,0.0,0.0,90,0.00,,CLR,0.00,0.00,VWS V14.01,2013-09-25 09:55:00,
2013-09-25 06:00:00,43.4,40.7,29.83,NW,307,0.0,1.0,90,0.00,,CLR,0.00,0.00,VWS V14.01,2013-09-25 10:00:00,
2013-09-25 06:05:00,43.5,40.8,29.82,NW,307,0.0,2.0,90,0.00,,CLR,0.00,0.00,VWS V14.01,2013-09-25 10:05:00,
2013-09-25 06:10:00,43.6,40.9,29.84,NW,306,0.0,1.0,90,0.00,,CLR,0.00,0.00,VWS V14.01,2013-09-25 10:10:00,
2013-09-25 06:15:00,43.7,41.0,29.83,NW,306,0.0,2.0,90,0.00,,CLR,0.00,0.00,VWS V14.01,2013-09-25 10:15:00,
2013-09-25 06:16:00,43.5,40.8,29.82,NW,307,0.0,1.0,90,0.00,,CLR,0.00,0.00,VWS V14.01,2013-09-25 10:16:00,
2013-09-25 06:20:00,43.7,41.0,29.82,NW,307,0.0,1.0,90,0.00,,CLR,0.00,0.00,VWS V14.01,2013-09-25 10:20:00,
2013-09-25 06:21:00,43.5,40.8,29.83,NW,307,0.0,1.0,90,0.00,,CLR,0.00,0.00,VWS V14.01,2013-09-25 10:21:00,
2013-09-25 06:25:00,43.6,40.9,29.83,NW,307,0.0,0.0,90,0.00,,CLR,0.00,0.00,VWS V14.01,2013-09-25 10:25:00,
2013-09-25 06:26:00,43.5,40.8,29.82,NW,307,0.0,1.0,90,0.00,,CLR,0.00,0.00,VWS V14.01,2013-09-25 10:26:00,
2013-09-25 06:30:00,43.6,40.9,29.82,NW,307,0.0,1.0,90,0.00,,CLR,0.00,0.00,VWS V14.01,2013-09-25 10:30:00,
2013-09-25 06:31:00,43.4,40.7,29.82,NW,307,0.0,2.0,90,0.00,,CLR,0.00,0.00,VWS V14.01,2013-09-25 10:31:00,
2013-09-25 06:35:00,43.6,40.9,29.83,NW,307,0.0,1.0,90,0.00,,CLR,0.00,0.00,VWS V14.01,2013-09-25 10:35:00,
2013-09-25 06:36:00,43.5,40.8,29.84,NW,307,0.0,2.0,90,0.00,,CLR,0.00,0.00,VWS V14.01,2013-09-25 10:36:00,
2013-09-25 06:40:00,43.5,40.8,29.83,NW,307,0.0,0.0,90,0.00,,CLR,0.00,0.00,VWS V14.01,2013-09-25 10:40:00,
2013-09-25 06:41:00,43.6,40.9,29.82,NW,307,1.0,3.0,90,0.00,,CLR,0.00,5.00,VWS V14.01,2013-09-25 10:41:00,
2013-09-25 06:45:00,43.5,40.8,29.82,NW,307,0.0,0.0,90,0.00,,CLR,0.00,0.00,VWS V14.01,2013-09-25 10:45:00,
2013-09-25 06:46:00,43.7,41.0,29.84,NW,307,0.0,4.0,90,0.00,,CLR,0.00,9.00,VWS V14.01,2013-09-25 10:46:00,
2013-09-25 06:50:00,43.4,40.7,29.83,NW,307,0.0,0.0,90,0.00,,CLR,0.00,0.00,VWS V14.01,2013-09-25 10:50:00,
2013-09-25 06:51:00,43.8,41.1,29.83,NW,307,0.0,4.0,90,0.00,,CLR,0.00,11.00,VWS V14.01,2013-09-25 10:51:00,
2013-09-25 06:55:00,43.3,40.6,29.82,NW,307,0.0,1.0,90,0.00,,CLR,0.00,0.00,VWS V14.01,2013-09-25 10:55:00,
2013-09-25 06:56:00,43.9,41.2,29.82,NW,307,0.0,2.0,90,0.00,,CLR,0.00,28.00,VWS V14.01,2013-09-25 10:56:00,
2013-09-25 07:00:00,43.3,40.6,29.83,NW,307,0.0,0.0,90,0.00,,CLR,0.00,0.00,VWS V14.01,2013-09-25 11:00:00,
2013-09-25 07:01:00,44.1,41.4,29.84,NW,307,0.0,0.0,90,0.00,,CLR,0.00,39.00,VWS V14.01,2013-09-25 11:01:00,
2013-09-25 07:05:00,43.4,41.0,29.83,NW,307,0.0,1.0,91,0.00,,CLR,0.00,0.00,VWS V14.01,2013-09-25 11:05:00,
2013-09-25 07:06:00,44.4,41.7,29.83,NW,308,0.0,0.0,90,0.00,,CLR,0.00,51.00,VWS V14.01,2013-09-25 11:06:00,
2013-09-25 07:10:00,43.6,40.9,29.82,NW,308,0.0,2.0,90,0.00,,CLR,0.00,0.00,VWS V14.01,2013-09-25 11:10:00,
2013-09-25 07:11:00,44.7,41.7,29.82,NW,307,2.0,3.0,89,0.00,,CLR,0.00,65.00,VWS V14.01,2013-09-25 11:11:00,
2013-09-25 07:15:00,43.6,40.9,29.84,NW,307,0.0,1.0,90,0.00,,CLR,0.00,0.00,VWS V14.01,2013-09-25 11:15:00,
2013-09-25 07:16:00,45.0,42.0,29.83,NW,307,1.0,4.0,89,0.00,,CLR,0.00,79.00,VWS V14.01,2013-09-25 11:16:00,
2013-09-25 07:20:00,43.5,40.8,29.83,NW,306,1.0,3.0,90,0.00,,CLR,0.00,0.00,VWS V14.01,2013-09-25 11:20:00,
2013-09-25 07:21:00,45.3,42.0,29.82,NW,308,0.0,3.0,88,0.00,,CLR,0.00,93.00,VWS V14.01,2013-09-25 11:21:00,
2013-09-25 07:25:00,43.5,40.8,29.83,NW,307,1.0,1.0,90,0.00,,CLR,0.00,0.00,VWS V14.01,2013-09-25 11:25:00,
2013-09-25 07:26:00,45.6,42.3,29.83,NW,307,0.0,2.0,88,0.00,,CLR,0.00,109.00,VWS V14.01,2013-09-25 11:26:00,
2013-09-25 07:30:00,43.4,40.7,29.82,NW,307,0.0,1.0,90,0.00,,CLR,0.00,0.00,VWS V14.01,2013-09-25 11:30:00,
2013-09-25 07:32:00,46.1,42.8,29.83,NW,306,2.0,2.0,88,0.00,,CLR,0.00,125.00,VWS V14.01,2013-09-25 11:32:00,
2013-09-25 07:35:00,43.4,40.7,29.82,NW,308,1.0,2.0,90,0.00,,CLR,0.00,0.00,VWS V14.01,2013-09-25 11:35:00,
2013-09-25 07:37:00,46.4,42.8,29.82,WSW,254,3.0,6.0,87,0.00,,CLR,0.00,142.00,VWS V14.01,2013-09-25 11:37:00,
2013-09-25 07:40:00,43.5,40.8,29.84,NW,306,2.0,2.0,90,0.00,,CLR,0.00,0.00,VWS V14.01,2013-09-25 11:40:00,
2013-09-25 07:42:00,46.6,42.6,29.83,West,268,4.0,6.0,86,0.00,,CLR,0.00,160.00,VWS V14.01,2013-09-25 11:42:00,
2013-09-25 07:45:00,43.6,40.9,29.82,NW,307,2.0,3.0,90,0.00,,CLR,0.00,7.00,VWS V14.01,2013-09-25 11:45:00,
2013-09-25 07:47:00,46.9,42.9,29.82,West,272,5.0,6.0,86,0.00,,CLR,0.00,176.00,VWS V14.01,2013-09-25 11:47:00,
2013-09-25 07:50:00,43.7,41.0,29.84,NW,307,4.0,4.0,90,0.00,,CLR,0.00,9.00,VWS V14.01,2013-09-25 11:50:00,
2013-09-25 07:52:00,47.2,42.9,29.84,WNW,292,3.0,7.0,85,0.00,,CLR,0.00,193.00,VWS V14.01,2013-09-25 11:52:00,
2013-09-25 07:55:00,43.8,41.1,29.83,NW,307,2.0,4.0,90,0.00,,CLR,0.00,11.00,VWS V14.01,2013-09-25 11:55:00,
2013-09-25 07:57:00,47.5,42.9,29.83,West,273,3.0,6.0,84,0.00,,CLR,0.00,209.00,VWS V14.01,2013-09-25 11:57:00,
2013-09-25 08:00:00,43.9,41.2,29.82,NW,307,0.0,2.0,90,0.00,,CLR,0.00,28.00,VWS V14.01,2013-09-25 12:00:00,
2013-09-25 08:02:00,48.0,43.4,29.84,WNW,288,3.0,3.0,84,0.00,,CLR,0.00,225.00,VWS V14.01,2013-09-25 12:02:00,
2013-09-25 08:05:00,44.1,41.4,29.84,NW,306,0.0,0.0,90,0.00,,CLR,0.00,40.00,VWS V14.01,2013-09-25 12:05:00,
2013-09-25 08:07:00,48.4,43.8,29.83,West,267,1.0,2.0,84,0.00,,CLR,0.00,241.00,VWS V14.01,2013-09-25 12:07:00,
2013-09-25 08:10:00,44.4,41.7,29.83,NW,307,0.0,0.0,90,0.00,,CLR,0.00,53.00,VWS V14.01,2013-09-25 12:10:00,
2013-09-25 08:12:00,48.9,44.0,29.84,West,270,2.0,3.0,83,0.00,,CLR,0.00,255.00,VWS V14.01,2013-09-25 12:12:00,
2013-09-25 08:15:00,44.7,41.7,29.82,NW,307,2.0,3.0,89,0.00,,CLR,0.00,67.00,VWS V14.01,2013-09-25 12:15:00,
2013-09-25 08:17:00,49.5,44.6,29.84,West,261,6.0,6.0,83,0.00,,CLR,0.00,265.00,VWS V14.01,2013-09-25 12:17:00,
2013-09-25 08:20:00,45.1,42.1,29.83,NW,307,2.0,4.0,89,0.00,,CLR,0.00,81.00,VWS V14.01,2013-09-25 12:20:00,
2013-09-25 08:22:00,50.0,44.7,29.83,West,262,0.0,2.0,82,0.00,,CLR,0.00,279.00,VWS V14.01,2013-09-25 12:22:00,
2013-09-25 08:25:00,45.4,42.1,29.82,NW,307,0.0,3.0,88,0.00,,CLR,0.00,93.00,VWS V14.01,2013-09-25 12:25:00,
2013-09-25 08:27:00,50.5,44.9,29.84,West,275,3.0,3.0,81,0.00,,CLR,0.00,294.00,VWS V14.01,2013-09-25 12:27:00,
2013-09-25 08:30:00,45.7,42.4,29.83,NW,306,0.0,2.0,88,0.00,,CLR,0.00,109.00,VWS V14.01,2013-09-25 12:30:00,
2013-09-25 08:32:00,51.2,45.2,29.83,NNW,335,2.0,4.0,80,0.00,,CLR,0.00,309.00,VWS V14.01,2013-09-25 12:32:00,
2013-09-25 08:35:00,46.1,42.5,29.83,NW,307,2.0,2.0,87,0.00,,CLR,0.00,125.00,VWS V14.01,2013-09-25 12:35:00,
2013-09-25 08:37:00,51.8,45.2,29.84,NW,313,5.0,6.0,78,0.00,,CLR,0.00,322.00,VWS V14.01,2013-09-25 12:37:00,
2013-09-25 08:40:00,46.4,42.8,29.82,WSW,254,3.0,6.0,87,0.00,,CLR,0.00,142.00,VWS V14.01,2013-09-25 12:40:00,
2013-09-25 08:42:00,52.6,45.6,29.84,North,355,4.0,5.0,77,0.00,,CLR,0.00,336.00,VWS V14.01,2013-09-25 12:42:00,
2013-09-25 08:45:00,46.6,42.6,29.83,West,268,4.0,6.0,86,0.00,,CLR,0.00,160.00,VWS V14.01,2013-09-25 12:45:00,
2013-09-25 08:47:00,53.3,45.9,29.83,WNW,288,3.0,5.0,76,0.00,,CLR,0.00,350.00,VWS V14.01,2013-09-25 12:47:00,
2013-09-25 08:50:00,46.9,42.9,29.82,West,272,5.0,6.0,86,0.00,,CLR,0.00,176.00,VWS V14.01,2013-09-25 12:50:00,
2013-09-25 08:52:00,54.1,46.4,29.85,NW,307,3.0,3.0,75,0.00,,CLR,0.00,362.00,VWS V14.01,2013-09-25 12:52:00,
2013-09-25 08:55:00,47.2,42.9,29.84,West,279,6.0,6.0,85,0.00,,CLR,0.00,190.00,VWS V14.01,2013-09-25 12:55:00,
2013-09-25 08:57:00,54.7,46.2,29.85,WNW,302,3.0,6.0,73,0.00,,CLR,0.00,376.00,VWS V14.01,2013-09-25 12:57:00,
2013-09-25 09:00:00,47.5,42.9,29.83,West,272,6.0,7.0,84,0.00,,CLR,0.00,206.00,VWS V14.01,2013-09-25 13:00:00,
2013-09-25 09:02:00,55.2,46.3,29.85,NNW,333,4.0,6.0,72,0.00,,CLR,0.00,390.00,VWS V14.01,2013-09-25 13:02:00,
2013-09-25 09:05:00,47.9,43.3,29.84,WNW,288,3.0,6.0,84,0.00,,CLR,0.00,221.00,VWS V14.01,2013-09-25 13:05:00,
2013-09-25 09:07:00,55.4,46.2,29.86,North,5,7.0,7.0,71,0.00,,CLR,0.00,403.00,VWS V14.01,2013-09-25 13:07:00,
2013-09-25 09:10:00,48.3,43.7,29.83,West,267,2.0,6.0,84,0.00,,CLR,0.00,237.00,VWS V14.01,2013-09-25 13:10:00,
2013-09-25 09:12:00,55.7,46.5,29.86,North,355,1.0,7.0,71,0.00,,CLR,0.00,417.00,VWS V14.01,2013-09-25 13:12:00,
2013-09-25 09:15:00,48.8,44.2,29.84,West,270,3.0,5.0,84,0.00,,CLR,0.00,251.00,VWS V14.01,2013-09-25 13:15:00,
2013-09-25 09:18:00,56.1,46.8,29.86,North,11,6.0,6.0,71,0.00,,CLR,0.00,429.00,VWS V14.01,2013-09-25 13:18:00,
2013-09-25 09:20:00,49.4,44.5,29.84,West,269,2.0,4.0,83,0.00,,CLR,0.00,265.00,VWS V14.01,2013-09-25 13:20:00,
2013-09-25 09:23:00,56.2,46.6,29.86,NNW,336,7.0,10.0,70,0.00,,CLR,0.00,441.00,VWS V14.01,2013-09-25 13:23:00,
2013-09-25 09:25:00,49.9,44.6,29.83,West,262,0.0,6.0,82,0.00,,CLR,0.00,279.00,VWS V14.01,2013-09-25 13:25:00,
2013-09-25 09:28:00,56.3,46.3,29.86,NNW,335,4.0,9.0,69,0.00,,CLR,0.00,454.00,VWS V14.01,2013-09-25 13:28:00,
2013-09-25 09:30:00,50.5,44.9,29.84,West,274,2.0,7.0,81,0.00,,CLR,0.00,292.00,VWS V14.01,2013-09-25 13:30:00,
2013-09-25 09:33:00,56.3,46.3,29.86,North,355,4.0,6.0,69,0.00,,CLR,0.00,466.00,VWS V14.01,2013-09-25 13:33:00,
2013-09-25 09:35:00,51.2,45.2,29.83,NNW,335,4.0,6.0,80,0.00,,CLR,0.00,306.00,VWS V14.01,2013-09-25 13:35:00,
2013-09-25 09:38:00,56.3,46.3,29.86,NNW,342,8.0,10.0,69,0.00,,CLR,0.00,478.00,VWS V14.01,2013-09-25 13:38:00,
2013-09-25 09:40:00,51.8,45.2,29.84,NW,317,5.0,6.0,78,0.00,,CLR,0.00,320.00,VWS V14.01,2013-09-25 13:40:00,
2013-09-25 09:43:00,56.3,46.7,29.86,North,355,4.0,6.0,70,0.00,,CLR,0.00,489.00,VWS V14.01,2013-09-25 13:43:00,
2013-09-25 09:45:00,52.5,45.8,29.84,WNW,292,3.0,8.0,78,0.00,,CLR,0.00,334.00,VWS V14.01,2013-09-25 13:45:00,
2013-09-25 09:48:00,56.4,46.4,29.86,NE,52,4.0,10.0,69,0.00,,CLR,0.00,501.00,VWS V14.01,2013-09-25 13:48:00,
2013-09-25 09:50:00,53.2,45.8,29.83,WNW,294,4.0,7.0,76,0.00,,CLR,0.00,348.00,VWS V14.01,2013-09-25 13:50:00,
2013-09-25 09:53:00,56.5,46.5,29.87,NNE,29,3.0,11.0,69,0.00,,CLR,0.00,512.00,VWS V14.01,2013-09-25 13:53:00,
2013-09-25 09:55:00,54.1,46.7,29.85,NNW,336,1.0,7.0,76,0.00,,CLR,0.00,362.00,VWS V14.01,2013-09-25 13:55:00,
2013-09-25 09:58:00,56.7,47.0,29.87,NNE,24,6.0,6.0,70,0.00,,CLR,0.00,524.00,VWS V14.01,2013-09-25 13:58:00,
2013-09-25 10:00:00,54.6,46.1,29.85,NW,326,0.0,12.0,73,0.00,,CLR,0.00,376.00,VWS V14.01,2013-09-25 14:00:00,
2013-09-25 10:03:00,57.2,47.5,29.87,North,350,5.0,5.0,70,0.00,,CLR,0.00,534.00,VWS V14.01,2013-09-25 14:03:00,
2013-09-25 10:05:00,55.1,46.6,29.85,NNW,346,6.0,6.0,73,0.00,,CLR,0.00,387.00,VWS V14.01,2013-09-25 14:05:00,
2013-09-25 10:08:00,57.4,46.5,29.87,NNE,33,5.0,9.0,67,0.00,,CLR,0.00,543.00,VWS V14.01,2013-09-25 14:08:00,
2013-09-25 10:10:00,55.4,46.2,29.86,NW,307,5.0,9.0,71,0.00,,CLR,0.00,401.00,VWS V14.01,2013-09-25 14:10:00,
2013-09-25 10:13:00,57.5,47.0,29.87,NNW,333,5.0,7.0,68,0.00,,CLR,0.00,552.00,VWS V14.01,2013-09-25 14:13:00,
2013-09-25 10:15:00,55.7,46.1,29.86,NNW,330,7.0,9.0,70,0.00,,CLR,0.00,415.00,VWS V14.01,2013-09-25 14:15:00,
2013-09-25 10:18:00,57.4,46.5,29.87,NW,315,5.0,8.0,67,0.00,,CLR,0.00,561.00,VWS V14.01,2013-09-25 14:18:00,
2013-09-25 10:20:00,56.0,46.4,29.86,North,355,0.0,7.0,70,0.00,,CLR,0.00,427.00,VWS V14.01,2013-09-25 14:20:00,
2013-09-25 10:23:00,57.5,47.0,29.87,NW,323,3.0,7.0,68,0.00,,CLR,0.00,571.00,VWS V14.01,2013-09-25 14:23:00,
2013-09-25 10:25:00,56.2,46.6,29.86,NNW,334,10.0,10.0,70,0.00,,CLR,0.00,439.00,VWS V14.01,2013-09-25 14:25:00,
2013-09-25 10:28:00,57.5,46.6,29.87,NW,320,4.0,8.0,67,0.00,,CLR,0.00,582.00,VWS V14.01,2013-09-25 14:28:00,
2013-09-25 10:30:00,56.3,46.3,29.86,NW,325,6.0,10.0,69,0.00,,CLR,0.00,452.00,VWS V14.01,2013-09-25 14:30:00,
2013-09-25 10:34:00,57.4,46.5,29.87,NNW,332,7.0,9.0,67,0.00,,CLR,0.00,605.00,VWS V14.01,2013-09-25 14:34:00,
2013-09-25 10:35:00,56.2,46.2,29.86,NNW,331,1.0,10.0,69,0.00,,CLR,0.00,464.00,VWS V14.01,2013-09-25 14:35:00,
2013-09-25 10:39:00,57.6,47.1,29.87,NW,311,4.0,7.0,68,0.00,,CLR,0.00,598.00,VWS V14.01,2013-09-25 14:39:00,
2013-09-25 10:40:00,56.3,46.3,29.86,NW,306,5.0,11.0,69,0.00,,CLR,0.00,473.00,VWS V14.01,2013-09-25 14:40:00,
2013-09-25 10:44:00,58.2,47.7,29.87,NE,54,2.0,7.0,68,0.00,,CLR,0.00,606.00,VWS V14.01,2013-09-25 14:44:00,
2013-09-25 10:45:00,56.2,46.6,29.86,NNW,344,3.0,10.0,70,0.00,,CLR,0.00,485.00,VWS V14.01,2013-09-25 14:45:00,
2013-09-25 10:49:00,58.2,46.9,29.87,North,9,7.0,7.0,66,0.00,,CLR,0.00,612.00,VWS V14.01,2013-09-25 14:49:00,
2013-09-25 10:50:00,56.4,46.4,29.86,North,10,3.0,9.0,69,0.00,,CLR,0.00,497.00,VWS V14.01,2013-09-25 14:50:00,
2013-09-25 10:54:00,58.1,46.4,29.86,North,360,5.0,9.0,65,0.00,,CLR,0.00,619.00,VWS V14.01,2013-09-25 14:54:00,
2013-09-25 10:55:00,56.6,46.6,29.87,NNE,25,6.0,10.0,69,0.00,,CLR,0.00,508.00,VWS V14.01,2013-09-25 14:55:00,
2013-09-25 10:59:00,58.6,46.9,29.86,NW,313,6.0,9.0,65,0.00,,CLR,0.00,626.00,VWS V14.01,2013-09-25 14:59:00,
2013-09-25 11:00:00,56.6,46.9,29.87,NW,310,5.0,11.0,70,0.00,,CLR,0.00,526.00,VWS V14.01,2013-09-25 15:00:00,
2013-09-25 11:04:00,59.0,46.8,29.86,NNW,340,1.0,9.0,64,0.00,,CLR,0.00,633.00,VWS V14.01,2013-09-25 15:04:00,
2013-09-25 11:05:00,57.0,46.9,29.87,NW,305,2.0,7.0,69,0.00,,CLR,0.00,531.00,VWS V14.01,2013-09-25 15:05:00,
2013-09-25 11:09:00,59.1,47.0,29.86,NE,44,2.0,5.0,64,0.00,,CLR,0.00,638.00,VWS V14.01,2013-09-25 15:09:00,
2013-09-25 11:10:00,57.5,47.0,29.87,NNW,342,5.0,8.0,68,0.00,,CLR,0.00,541.00,VWS V14.01,2013-09-25 15:10:00,
2013-09-25 11:14:00,59.0,46.4,29.86,NNE,33,4.0,6.0,63,0.00,,CLR,0.00,643.00,VWS V14.01,2013-09-25 15:14:00,
2013-09-25 11:15:00,57.4,47.3,29.87,NE,51,3.0,9.0,69,0.00,,CLR,0.00,548.00,VWS V14.01,2013-09-25 15:15:00,
2013-09-25 11:19:00,59.1,47.0,29.86,NNE,20,5.0,8.0,64,0.00,,CLR,0.00,649.00,VWS V14.01,2013-09-25 15:19:00,
2013-09-25 11:20:00,57.4,46.5,29.87,ENE,63,4.0,7.0,67,0.00,,CLR,0.00,557.00,VWS V14.01,2013-09-25 15:20:00,
2013-09-25 11:24:00,59.3,46.7,29.86,NNE,13,6.0,8.0,63,0.00,,CLR,0.00,652.00,VWS V14.01,2013-09-25 15:24:00,
2013-09-25 11:25:00,57.4,46.9,29.87,North,5,6.0,11.0,68,0.00,,CLR,0.00,568.00,VWS V14.01,2013-09-25 15:25:00,
2013-09-25 11:29:00,59.2,46.6,29.86,NNW,344,4.0,6.0,63,0.00,,CLR,0.00,656.00,VWS V14.01,2013-09-25 15:29:00,
2013-09-25 11:30:00,57.5,46.6,29.87,NW,324,7.0,9.0,67,0.00,,CLR,0.00,592.00,VWS V14.01,2013-09-25 15:30:00,
2013-09-25 11:34:00,59.7,47.1,29.86,North,5,3.0,5.0,63,0.00,,CLR,0.00,668.00,VWS V14.01,2013-09-25 15:34:00,
2013-09-25 11:35:00,57.4,46.5,29.87,NNW,333,8.0,8.0,67,0.00,,CLR,0.00,589.00,VWS V14.01,2013-09-25 15:35:00,
2013-09-25 11:39:00,59.9,47.3,29.86,NE,46,3.0,9.0,63,0.00,,CLR,0.00,664.00,VWS V14.01,2013-09-25 15:39:00,
2013-09-25 11:40:00,57.5,47.0,29.87,NNW,338,5.0,9.0,68,0.00,,CLR,0.00,601.00,VWS V14.01,2013-09-25 15:40:00,
2013-09-25 11:44:00,59.6,47.0,29.85,NNE,31,3.0,8.0,63,0.00,,CLR,0.00,664.00,VWS V14.01,2013-09-25 15:44:00,
2013-09-25 11:45:00,57.9,47.8,29.87,NNE,24,4.0,7.0,69,0.00,,CLR,0.00,603.00,VWS V14.01,2013-09-25 15:45:00,
2013-09-25 11:49:00,59.7,47.5,29.85,ENE,76,1.0,4.0,64,0.00,,CLR,0.00,666.00,VWS V14.01,2013-09-25 15:49:00,
2013-09-25 11:50:00,58.3,46.6,29.87,NNE,21,3.0,9.0,65,0.00,,CLR,0.00,608.00,VWS V14.01,2013-09-25 15:50:00,
2013-09-25 11:54:00,60.0,47.0,29.85,North,5,5.0,6.0,62,0.00,,CLR,0.00,670.00,VWS V14.01,2013-09-25 15:54:00,
2013-09-25 11:55:00,58.2,46.9,29.87,ENE,59,4.0,7.0,66,0.00,,CLR,0.00,619.00,VWS V14.01,2013-09-25 15:55:00,
2013-09-25 12:00:00,60.1,47.5,29.85,ENE,78,1.0,9.0,63,0.00,,CLR,0.00,671.00,VWS V14.01,2013-09-25 16:00:00,
2013-09-25 12:05:00,60.8,48.1,29.84,ENE,62,1.0,4.0,63,0.00,,CLR,0.00,670.00,VWS V14.01,2013-09-25 16:05:00,
2013-09-25 12:10:00,60.9,47.4,29.84,NE,51,4.0,8.0,61,0.00,,CLR,0.00,671.00,VWS V14.01,2013-09-25 16:10:00,
2013-09-25 12:15:00,60.5,47.0,29.85,East,91,0.0,9.0,61,0.00,,CLR,0.00,673.00,VWS V14.01,2013-09-25 16:15:00,
2013-09-25 12:20:00,60.6,46.7,29.84,North,5,2.0,6.0,60,0.00,,CLR,0.00,673.00,VWS V14.01,2013-09-25 16:20:00,
2013-09-25 12:25:00,60.8,47.3,29.84,ENE,71,3.0,6.0,61,0.00,,CLR,0.00,675.00,VWS V14.01,2013-09-25 16:25:00,
2013-09-25 12:30:00,60.8,46.8,29.84,NE,40,0.0,6.0,60,0.00,,CLR,0.00,673.00,VWS V14.01,2013-09-25 16:30:00,
2013-09-25 12:35:00,61.1,47.6,29.84,ENE,61,6.0,6.0,61,0.00,,CLR,0.00,671.00,VWS V14.01,2013-09-25 16:35:00,
2013-09-25 12:40:00,61.1,48.4,29.84,ENE,57,1.0,7.0,63,0.00,,CLR,0.00,670.00,VWS V14.01,2013-09-25 16:40:00,
2013-09-25 12:45:00,61.2,47.2,29.84,West,277,1.0,6.0,60,0.00,,CLR,0.00,670.00,VWS V14.01,2013-09-25 16:45:00,
2013-09-25 12:50:00,61.5,47.5,29.84,NNE,25,3.0,5.0,60,0.00,,CLR,0.00,671.00,VWS V14.01,2013-09-25 16:50:00,
2013-09-25 12:55:00,61.5,47.1,29.84,NNE,19,2.0,7.0,59,0.00,,CLR,0.00,664.00,VWS V14.01,2013-09-25 16:55:00,
2013-09-25 13:00:00,61.8,48.2,29.84,WNW,301,1.0,3.0,61,0.00,,CLR,0.00,663.00,VWS V14.01,2013-09-25 17:00:00,
2013-09-25 13:05:00,60.3,48.5,29.85,NE,46,3.0,9.0,65,0.00,,CLR,0.00,671.00,VWS V14.01,2013-09-25 17:05:00,
2013-09-25 13:06:00,62.5,48.0,29.83,West,264,3.0,6.0,59,0.00,,CLR,0.00,659.00,VWS V14.01,2013-09-25 17:06:00,
2013-09-25 13:10:00,61.0,48.3,29.84,North,355,1.0,5.0,63,0.00,,CLR,0.00,671.00,VWS V14.01,2013-09-25 17:10:00,
2013-09-25 13:11:00,62.6,48.5,29.83,NW,306,7.0,9.0,60,0.00,,CLR,0.00,480.00,VWS V14.01,2013-09-25 17:11:00,
2013-09-25 13:15:00,60.8,47.7,29.84,East,82,3.0,10.0,62,0.00,,CLR,0.00,673.00,VWS V14.01,2013-09-25 17:15:00,
2013-09-25 13:16:00,62.7,48.2,29.83,North,350,3.0,6.0,59,0.00,,CLR,0.00,148.00,VWS V14.01,2013-09-25 17:16:00,
2013-09-25 13:20:00,60.5,47.4,29.84,East,89,2.0,9.0,62,0.00,,CLR,0.00,670.00,VWS V14.01,2013-09-25 17:20:00,
2013-09-25 13:21:00,63.2,49.1,29.83,NW,324,3.0,8.0,60,0.00,,CLR,0.00,42.00,VWS V14.01,2013-09-25 17:21:00,
2013-09-25 13:25:00,60.7,47.2,29.84,ENE,58,2.0,6.0,61,0.00,,CLR,0.00,673.00,VWS V14.01,2013-09-25 17:25:00,
2013-09-25 13:26:00,63.3,47.8,29.84,NW,313,3.0,8.0,57,0.00,,CLR,0.00,60.00,VWS V14.01,2013-09-25 17:26:00,
2013-09-25 13:30:00,60.7,47.6,29.84,ENE,68,0.0,6.0,62,0.00,,CLR,0.00,673.00,VWS V14.01,2013-09-25 17:30:00,
2013-09-25 13:31:00,63.2,48.2,29.83,North,5,1.0,6.0,58,0.00,,CLR,0.00,60.00,VWS V14.01,2013-09-25 17:31:00,
2013-09-25 13:35:00,60.9,47.4,29.84,ESE,106,2.0,6.0,61,0.00,,CLR,0.00,673.00,VWS V14.01,2013-09-25 17:35:00,
2013-09-25 13:36:00,63.2,48.7,29.83,North,360,7.0,11.0,59,0.00,,CLR,0.00,56.00,VWS V14.01,2013-09-25 17:36:00,
2013-09-25 13:40:00,61.1,47.6,29.84,East,88,3.0,7.0,61,0.00,,CLR,0.00,668.00,VWS V14.01,2013-09-25 17:40:00,
2013-09-25 13:41:00,62.9,48.4,29.83,ENE,57,5.0,7.0,59,0.00,,CLR,0.00,63.00,VWS V14.01,2013-09-25 17:41:00,
2013-09-25 13:45:00,61.2,47.7,29.84,WNW,303,5.0,7.0,61,0.00,,CLR,0.00,668.00,VWS V14.01,2013-09-25 17:45:00,
2013-09-25 13:46:00,62.8,48.7,29.83,NE,40,4.0,4.0,60,0.00,,CLR,0.00,69.00,VWS V14.01,2013-09-25 17:46:00,
2013-09-25 13:50:00,61.3,47.8,29.84,North,355,3.0,6.0,61,0.00,,CLR,0.00,671.00,VWS V14.01,2013-09-25 17:50:00,
2013-09-25 13:52:00,62.6,49.0,29.83,East,90,5.0,7.0,61,0.00,,CLR,0.00,104.00,VWS V14.01,2013-09-25 17:52:00,
2013-09-25 13:55:00,61.5,47.9,29.84,NE,34,6.0,6.0,61,0.00,,CLR,0.00,670.00,VWS V14.01,2013-09-25 17:55:00,
2013-09-25 13:57:00,62.9,49.3,29.82,East,101,2.0,8.0,61,0.00,,CLR,0.00,79.00,VWS V14.01,2013-09-25 17:57:00,
2013-09-25 14:00:00,61.5,47.5,29.84,NNE,18,1.0,7.0,60,0.00,,CLR,0.00,666.00,VWS V14.01,2013-09-25 18:00:00,
2013-09-25 14:02:00,63.5,48.9,29.83,SW,236,1.0,6.0,59,0.00,,CLR,0.00,74.00,VWS V14.01,2013-09-25 18:02:00,
2013-09-25 14:05:00,62.0,47.5,29.83,WNW,300,2.0,3.0,59,0.00,,CLR,0.00,663.00,VWS V14.01,2013-09-25 18:05:00,
2013-09-25 14:07:00,64.1,49.0,29.83,North,360,1.0,6.0,58,0.00,,CLR,0.00,90.00,VWS V14.01,2013-09-25 18:07:00,
2013-09-25 14:10:00,62.6,48.1,29.83,West,263,5.0,8.0,59,0.00,,CLR,0.00,650.00,VWS V14.01,2013-09-25 18:10:00,
2013-09-25 14:12:00,63.9,48.8,29.83,NNW,333,1.0,7.0,58,0.00,,CLR,0.00,120.00,VWS V14.01,2013-09-25 18:12:00,
2013-09-25 14:15:00,62.7,48.2,29.83,NW,317,4.0,9.0,59,0.00,,CLR,0.00,427.00,VWS V14.01,2013-09-25 18:15:00,
2013-09-25 14:17:00,63.9,48.8,29.82,NW,309,2.0,7.0,58,0.00,,CLR,0.00,165.00,VWS V14.01,2013-09-25 18:17:00,
2013-09-25 14:20:00,62.8,48.3,29.83,WNW,302,5.0,6.0,59,0.00,,CLR,0.00,109.00,VWS V14.01,2013-09-25 18:20:00,
2013-09-25 14:22:00,64.5,49.4,29.83,NW,310,7.0,7.0,58,0.00,,CLR,0.00,148.00,VWS V14.01,2013-09-25 18:22:00,
2013-09-25 14:25:00,63.2,49.5,29.83,NNW,331,4.0,8.0,61,0.00,,CLR,0.00,42.00,VWS V14.01,2013-09-25 18:25:00,
2013-09-25 14:27:00,64.7,49.6,29.83,North,355,4.0,8.0,58,0.00,,CLR,0.00,195.00,VWS V14.01,2013-09-25 18:27:00,
2013-09-25 14:30:00,63.2,48.2,29.84,NW,313,2.0,8.0,58,0.00,,CLR,0.00,60.00,VWS V14.01,2013-09-25 18:30:00,
2013-09-25 14:32:00,64.8,49.2,29.82,NE,34,3.0,6.0,57,0.00,,CLR,0.00,142.00,VWS V14.01,2013-09-25 18:32:00,
2013-09-25 14:35:00,63.2,48.2,29.83,North,5,0.0,6.0,58,0.00,,CLR,0.00,58.00,VWS V14.01,2013-09-25 18:35:00,
2013-09-25 14:37:00,64.2,48.7,29.82,NNE,16,3.0,6.0,57,0.00,,CLR,0.00,211.00,VWS V14.01,2013-09-25 18:37:00,
2013-09-25 14:40:00,63.2,48.7,29.83,NW,320,3.0,11.0,59,0.00,,CLR,0.00,56.00,VWS V14.01,2013-09-25 18:40:00,
2013-09-25 14:42:00,64.0,49.4,29.83,ENE,69,3.0,4.0,59,0.00,,CLR,0.00,216.00,VWS V14.01,2013-09-25 18:42:00,
2013-09-25 14:45:00,62.8,48.3,29.83,NE,38,3.0,7.0,59,0.00,,CLR,0.00,63.00,VWS V14.01,2013-09-25 18:45:00,
2013-09-25 14:47:00,63.7,49.1,29.83,NNE,13,4.0,7.0,59,0.00,,CLR,0.00,197.00,VWS V14.01,2013-09-25 18:47:00,
2013-09-25 14:50:00,62.8,49.2,29.83,NNE,30,4.0,4.0,61,0.00,,CLR,0.00,69.00,VWS V14.01,2013-09-25 18:50:00,
2013-09-25 14:52:00,63.6,49.0,29.82,North,350,0.0,4.0,59,0.00,,CLR,0.00,183.00,VWS V14.01,2013-09-25 18:52:00,
2013-09-25 14:55:00,62.6,49.0,29.83,East,92,4.0,7.0,61,0.00,,CLR,0.00,104.00,VWS V14.01,2013-09-25 18:55:00,
2013-09-25 14:57:00,63.8,49.2,29.82,North,350,1.0,1.0,59,0.00,,CLR,0.00,186.00,VWS V14.01,2013-09-25 18:57:00,
2013-09-25 15:00:00,62.9,49.3,29.82,East,101,2.0,8.0,61,0.00,,CLR,0.00,79.00,VWS V14.01,2013-09-25 19:00:00,
2013-09-25 15:02:00,63.8,49.7,29.82,East,79,2.0,4.0,60,0.00,,CLR,0.00,151.00,VWS V14.01,2013-09-25 19:02:00,
2013-09-25 15:05:00,63.5,48.9,29.83,SW,236,1.0,6.0,59,0.00,,CLR,0.00,74.00,VWS V14.01,2013-09-25 19:05:00,
2013-09-25 15:07:00,63.6,49.9,29.83,ENE,71,5.0,7.0,61,0.00,,CLR,0.00,134.00,VWS V14.01,2013-09-25 19:07:00,
2013-09-25 15:10:00,64.1,49.0,29.83,North,360,1.0,6.0,58,0.00,,CLR,0.00,90.00,VWS V14.01,2013-09-25 19:10:00,
2013-09-25 15:12:00,63.1,49.5,29.83,ENE,70,3.0,6.0,61,0.00,,CLR,0.00,139.00,VWS V14.01,2013-09-25 19:12:00,
2013-09-25 15:15:00,63.9,48.8,29.83,NNW,333,1.0,7.0,58,0.00,,CLR,0.00,120.00,VWS V14.01,2013-09-25 19:15:00,
2013-09-25 15:17:00,63.1,49.5,29.82,ESE,120,2.0,7.0,61,0.00,,CLR,0.00,113.00,VWS V14.01,2013-09-25 19:17:00,
2013-09-25 15:20:00,63.9,48.8,29.82,NW,309,2.0,7.0,58,0.00,,CLR,0.00,165.00,VWS V14.01,2013-09-25 19:20:00,
2013-09-25 15:22:00,62.8,48.7,29.82,SE,128,4.0,5.0,60,0.00,,CLR,0.00,113.00,VWS V14.01,2013-09-25 19:22:00,
2013-09-25 15:25:00,64.5,49.4,29.83,NW,313,6.0,7.0,58,0.00,,CLR,0.00,148.00,VWS V14.01,2013-09-25 19:25:00,
2013-09-25 15:27:00,62.0,48.4,29.82,ESE,111,5.0,6.0,61,0.00,,CLR,0.00,142.00,VWS V14.01,2013-09-25 19:27:00,
2013-09-25 15:30:00,64.7,49.6,29.83,North,355,4.0,8.0,58,0.00,,CLR,0.00,195.00,VWS V14.01,2013-09-25 19:30:00,
2013-09-25 15:32:00,61.2,47.7,29.82,SE,139,7.0,10.0,61,0.00,,CLR,0.00,142.00,VWS V14.01,2013-09-25 19:32:00,
2013-09-25 15:35:00,64.8,49.2,29.82,NE,34,3.0,6.0,57,0.00,,CLR,0.00,142.00,VWS V14.01,2013-09-25 19:35:00,
2013-09-25 15:37:00,60.8,48.1,29.82,ESE,123,7.0,9.0,63,0.00,,CLR,0.00,172.00,VWS V14.01,2013-09-25 19:37:00,
2013-09-25 15:40:00,64.2,48.7,29.82,NNE,16,3.0,6.0,57,0.00,,CLR,0.00,211.00,VWS V14.01,2013-09-25 19:40:00,
2013-09-25 15:42:00,60.2,48.0,29.82,East,86,6.0,9.0,64,0.00,,CLR,0.00,128.00,VWS V14.01,2013-09-25 19:42:00,
2013-09-25 15:45:00,64.0,49.4,29.83,ENE,69,3.0,4.0,59,0.00,,CLR,0.00,216.00,VWS V14.01,2013-09-25 19:45:00,
2013-09-25 15:47:00,59.9,47.7,29.82,ESE,111,7.0,9.0,64,0.00,,CLR,0.00,120.00,VWS V14.01,2013-09-25 19:47:00,
2013-09-25 15:50:00,63.7,49.1,29.83,NNE,13,4.0,7.0,59,0.00,,CLR,0.00,197.00,VWS V14.01,2013-09-25 19:50:00,
2013-09-25 15:52:00,59.7,47.9,29.83,East,100,8.0,8.0,65,0.00,,CLR,0.00,114.00,VWS V14.01,2013-09-25 19:52:00,
2013-09-25 15:55:00,63.6,49.0,29.82,North,350,0.0,4.0,59,0.00,,CLR,0.00,183.00,VWS V14.01,2013-09-25 19:55:00,
2013-09-25 15:57:00,59.3,47.1,29.82,ESE,116,8.0,9.0,64,0.00,,CLR,0.00,105.00,VWS V14.01,2013-09-25 19:57:00,
2013-09-25 16:00:00,63.8,49.2,29.82,North,350,1.0,1.0,59,0.00,,CLR,0.00,186.00,VWS V14.01,2013-09-25 20:00:00,
2013-09-25 16:02:00,59.1,47.0,29.83,ESE,103,7.0,12.0,64,0.00,,CLR,0.00,90.00,VWS V14.01,2013-09-25 20:02:00,
2013-09-25 16:05:00,63.8,49.7,29.82,East,79,2.0,4.0,60,0.00,,CLR,0.00,151.00,VWS V14.01,2013-09-25 20:05:00,
2013-09-25 16:07:00,58.8,47.1,29.83,ESE,111,7.0,11.0,65,0.00,,CLR,0.00,135.00,VWS V14.01,2013-09-25 20:07:00,
2013-09-25 16:10:00,63.6,49.9,29.83,ENE,71,5.0,7.0,61,0.00,,CLR,0.00,134.00,VWS V14.01,2013-09-25 20:10:00,
2013-09-25 16:12:00,58.6,46.9,29.83,ESE,123,11.0,13.0,65,0.00,,CLR,0.00,128.00,VWS V14.01,2013-09-25 20:12:00,
2013-09-25 16:15:00,63.1,49.5,29.83,ENE,70,3.0,6.0,61,0.00,,CLR,0.00,139.00,VWS V14.01,2013-09-25 20:15:00,
2013-09-25 16:18:00,58.2,46.5,29.83,ESE,116,7.0,9.0,65,0.00,,CLR,0.00,127.00,VWS V14.01,2013-09-25 20:18:00,
2013-09-25 16:20:00,63.1,49.5,29.82,ESE,120,2.0,7.0,61,0.00,,CLR,0.00,113.00,VWS V14.01,2013-09-25 20:20:00,
2013-09-25 16:23:00,58.2,46.9,29.83,ESE,105,8.0,11.0,66,0.00,,CLR,0.00,100.00,VWS V14.01,2013-09-25 20:23:00,
2013-09-25 16:25:00,62.8,48.7,29.82,SE,132,5.0,9.0,60,0.00,,CLR,0.00,113.00,VWS V14.01,2013-09-25 20:25:00,
2013-09-25 16:28:00,58.1,46.4,29.83,East,96,9.0,12.0,65,0.00,,CLR,0.00,84.00,VWS V14.01,2013-09-25 20:28:00,
2013-09-25 16:30:00,62.0,48.4,29.82,ESE,119,6.0,12.0,61,0.00,,CLR,0.00,142.00,VWS V14.01,2013-09-25 20:30:00,
2013-09-25 16:33:00,57.7,46.0,29.83,East,94,6.0,11.0,65,0.00,,CLR,0.00,65.00,VWS V14.01,2013-09-25 20:33:00,
2013-09-25 16:35:00,61.2,47.7,29.82,SE,146,10.0,11.0,61,0.00,,CLR,0.00,142.00,VWS V14.01,2013-09-25 20:35:00,
2013-09-25 16:38:00,57.5,46.2,29.84,East,90,5.0,8.0,66,0.00,,CLR,0.00,69.00,VWS V14.01,2013-09-25 20:38:00,
2013-09-25 16:40:00,60.8,48.1,29.83,SE,138,9.0,12.0,63,0.00,,CLR,0.00,172.00,VWS V14.01,2013-09-25 20:40:00,
2013-09-25 16:43:00,57.3,46.0,29.84,ESE,102,6.0,9.0,66,0.00,,CLR,0.00,97.00,VWS V14.01,2013-09-25 20:43:00,
2013-09-25 16:45:00,60.2,47.6,29.82,ESE,109,7.0,13.0,63,0.00,,CLR,0.00,128.00,VWS V14.01,2013-09-25 20:45:00,
2013-09-25 16:48:00,57.5,46.2,29.83,ESE,121,4.0,7.0,66,0.00,,CLR,0.00,98.00,VWS V14.01,2013-09-25 20:48:00,
2013-09-25 16:50:00,59.9,47.7,29.82,ESE,113,9.0,11.0,64,0.00,,CLR,0.00,120.00,VWS V14.01,2013-09-25 20:50:00,
2013-09-25 16:53:00,57.6,46.7,29.83,SE,124,4.0,6.0,67,0.00,,CLR,0.00,97.00,VWS V14.01,2013-09-25 20:53:00,
2013-09-25 16:55:00,59.7,47.5,29.83,ESE,111,8.0,12.0,64,0.00,,CLR,0.00,116.00,VWS V14.01,2013-09-25 20:55:00,
2013-09-25 16:59:00,57.5,46.6,29.84,ESE,107,2.0,5.0,67,0.00,,CLR,0.00,105.00,VWS V14.01,2013-09-25 20:59:00,
2013-09-25 17:00:00,59.4,47.2,29.82,ESE,116,7.0,12.0,64,0.00,,CLR,0.00,113.00,VWS V14.01,2013-09-25 21:00:00,
2013-09-25 17:04:00,57.6,46.7,29.84,ESE,103,5.0,6.0,67,0.00,,CLR,0.00,79.00,VWS V14.01,2013-09-25 21:04:00,
2013-09-25 17:05:00,59.1,47.0,29.83,ESE,105,8.0,13.0,64,0.00,,CLR,0.00,88.00,VWS V14.01,2013-09-25 21:05:00,
2013-09-25 17:09:00,57.5,46.6,29.84,ESE,112,4.0,8.0,67,0.00,,CLR,0.00,76.00,VWS V14.01,2013-09-25 21:09:00,
2013-09-25 17:10:00,58.8,47.1,29.83,ESE,121,6.0,12.0,65,0.00,,CLR,0.00,134.00,VWS V14.01,2013-09-25 21:10:00,
2013-09-25 17:14:00,57.3,46.5,29.84,ESE,116,8.0,8.0,67,0.00,,CLR,0.00,69.00,VWS V14.01,2013-09-25 21:14:00,
2013-09-25 17:15:00,58.7,47.0,29.83,ESE,103,13.0,13.0,65,0.00,,CLR,0.00,127.00,VWS V14.01,2013-09-25 21:15:00,
2013-09-25 17:19:00,57.2,46.8,29.85,ESE,109,7.0,9.0,68,0.00,,CLR,0.00,67.00,VWS V14.01,2013-09-25 21:19:00,
2013-09-25 17:20:00,58.3,46.6,29.83,ESE,113,9.0,13.0,65,0.00,,CLR,0.00,130.00,VWS V14.01,2013-09-25 21:20:00,
2013-09-25 17:24:00,57.2,46.8,29.85,ESE,120,6.0,8.0,68,0.00,,CLR,0.00,62.00,VWS V14.01,2013-09-25 21:24:00,
2013-09-25 17:25:00,58.2,46.5,29.83,ENE,75,5.0,12.0,65,0.00,,CLR,0.00,107.00,VWS V14.01,2013-09-25 21:25:00,
2013-09-25 17:29:00,57.2,46.8,29.84,ESE,123,5.0,8.0,68,0.00,,CLR,0.00,67.00,VWS V14.01,2013-09-25 21:29:00,
2013-09-25 17:30:00,58.2,46.5,29.83,ESE,105,11.0,12.0,65,0.00,,CLR,0.00,93.00,VWS V14.01,2013-09-25 21:30:00,
2013-09-25 17:34:00,57.2,46.8,29.84,SE,126,4.0,8.0,68,0.00,,CLR,0.00,56.00,VWS V14.01,2013-09-25 21:34:00,
2013-09-25 17:35:00,57.8,46.1,29.83,ESE,117,8.0,13.0,65,0.00,,CLR,0.00,69.00,VWS V14.01,2013-09-25 21:35:00,
2013-09-25 17:40:00,57.1,47.0,29.85,ESE,115,4.0,6.0,69,0.00,,CLR,0.00,46.00,VWS V14.01,2013-09-25 21:40:00,
2013-09-25 17:45:00,57.0,46.9,29.85,ESE,106,2.0,6.0,69,0.00,,CLR,0.00,49.00,VWS V14.01,2013-09-25 21:45:00,
2013-09-25 17:50:00,57.1,47.4,29.85,ESE,113,4.0,4.0,70,0.00,,CLR,0.00,37.00,VWS V14.01,2013-09-25 21:50:00,
2013-09-25 17:55:00,56.9,46.8,29.85,ESE,112,5.0,6.0,69,0.00,,CLR,0.00,30.00,VWS V14.01,2013-09-25 21:55:00,
2013-09-25 18:00:00,56.8,47.5,29.85,ESE,118,7.0,7.0,71,0.00,,CLR,0.00,21.00,VWS V14.01,2013-09-25 22:00:00,
2013-09-25 18:05:00,56.7,47.4,29.86,East,95,5.0,6.0,71,0.00,,CLR,0.00,16.00,VWS V14.01,2013-09-25 22:05:00,
2013-09-25 18:10:00,56.6,47.3,29.86,ESE,119,4.0,9.0,71,0.00,,CLR,0.00,14.00,VWS V14.01,2013-09-25 22:10:00,
2013-09-25 18:15:00,56.4,47.5,29.86,ESE,103,5.0,7.0,72,0.00,,CLR,0.00,11.00,VWS V14.01,2013-09-25 22:15:00,
2013-09-25 18:20:00,56.4,47.5,29.86,SE,128,2.0,6.0,72,0.00,,CLR,0.00,7.00,VWS V14.01,2013-09-25 22:20:00,
2013-09-25 18:25:00,56.4,47.5,29.86,ESE,123,4.0,6.0,72,0.00,,CLR,0.00,0.00,VWS V14.01,2013-09-25 22:25:00,
2013-09-25 18:30:00,56.4,47.9,29.86,ESE,121,1.0,6.0,73,0.00,,CLR,0.00,0.00,VWS V14.01,2013-09-25 22:30:00,
2013-09-25 18:35:00,56.2,47.7,29.87,ESE,121,4.0,5.0,73,0.00,,CLR,0.00,0.00,VWS V14.01,2013-09-25 22:35:00,
2013-09-25 18:40:00,56.1,47.9,29.87,East,101,4.0,7.0,74,0.00,,CLR,0.00,0.00,VWS V14.01,2013-09-25 22:40:00,
2013-09-25 18:45:00,57.1,46.7,29.85,East,99,6.0,6.0,68,0.00,,CLR,0.00,47.00,VWS V14.01,2013-09-25 22:45:00,
2013-09-25 18:46:00,55.9,47.7,29.86,East,93,4.0,7.0,74,0.00,,CLR,0.00,0.00,VWS V14.01,2013-09-25 22:46:00,
2013-09-25 18:50:00,57.1,47.4,29.85,ESE,114,4.0,6.0,70,0.00,,CLR,0.00,47.00,VWS V14.01,2013-09-25 22:50:00,
2013-09-25 18:51:00,55.9,47.7,29.86,ESE,112,2.0,7.0,74,0.00,,CLR,0.00,0.00,VWS V14.01,2013-09-25 22:51:00,
2013-09-25 18:55:00,57.1,47.4,29.85,East,96,6.0,6.0,70,0.00,,CLR,0.00,35.00,VWS V14.01,2013-09-25 22:55:00,
2013-09-25 18:56:00,55.9,47.7,29.87,ESE,119,4.0,6.0,74,0.00,,CLR,0.00,0.00,VWS V14.01,2013-09-25 22:56:00,
2013-09-25 19:00:00,56.9,47.2,29.85,East,101,4.0,6.0,70,0.00,,CLR,0.00,26.00,VWS V14.01,2013-09-25 23:00:00,
2013-09-25 19:01:00,55.8,47.7,29.87,ESE,119,4.0,5.0,74,0.00,,CLR,0.00,0.00,VWS V14.01,2013-09-25 23:01:00,
2013-09-25 19:05:00,56.8,47.5,29.85,East,100,5.0,7.0,71,0.00,,CLR,0.00,19.00,VWS V14.01,2013-09-25 23:05:00,
2013-09-25 19:06:00,55.7,47.5,29.87,ESE,119,4.0,4.0,74,0.00,,CLR,0.00,0.00,VWS V14.01,2013-09-25 23:06:00,
2013-09-25 19:10:00,56.7,47.4,29.86,ESE,109,4.0,8.0,71,0.00,,CLR,0.00,16.00,VWS V14.01,2013-09-25 23:10:00,
2013-09-25 19:11:00,55.7,47.9,29.87,ESE,119,1.0,5.0,75,0.00,,CLR,0.00,0.00,VWS V14.01,2013-09-25 23:11:00,
2013-09-25 19:15:00,56.5,47.6,29.86,ESE,107,4.0,9.0,72,0.00,,CLR,0.00,14.00,VWS V14.01,2013-09-25 23:15:00,
2013-09-25 19:16:00,55.6,47.8,29.88,ESE,119,1.0,4.0,75,0.00,,CLR,0.00,0.00,VWS V14.01,2013-09-25 23:16:00,
2013-09-25 19:20:00,56.4,47.5,29.86,ESE,103,4.0,7.0,72,0.00,,CLR,0.00,11.00,VWS V14.01,2013-09-25 23:20:00,
2013-09-25 19:21:00,55.6,47.8,29.88,ESE,119,0.0,2.0,75,0.00,,CLR,0.00,0.00,VWS V14.01,2013-09-25 23:21:00,
2013-09-25 19:25:00,56.4,47.5,29.86,SE,128,5.0,6.0,72,0.00,,CLR,0.00,5.00,VWS V14.01,2013-09-25 23:25:00,
2013-09-25 19:26:00,55.5,48.1,29.88,ESE,119,1.0,2.0,76,0.00,,CLR,0.00,0.00,VWS V14.01,2013-09-25 23:26:00,
2013-09-25 19:30:00,56.3,47.8,29.86,ESE,123,5.0,6.0,73,0.00,,CLR,0.00,0.00,VWS V14.01,2013-09-25 23:30:00,
2013-09-25 19:31:00,55.4,48.0,29.88,ESE,119,0.0,2.0,76,0.00,,CLR,0.00,0.00,VWS V14.01,2013-09-25 23:31:00,
2013-09-25 19:35:00,56.3,47.8,29.86,ESE,121,2.0,6.0,73,0.00,,CLR,0.00,0.00,VWS V14.01,2013-09-25 23:35:00,
2013-09-25 19:36:00,55.3,47.9,29.88,ESE,119,0.0,0.0,76,0.00,,CLR,0.00,0.00,VWS V14.01,2013-09-25 23:36:00,
2013-09-25 19:40:00,56.2,48.0,29.86,ESE,121,4.0,5.0,74,0.00,,CLR,0.00,0.00,VWS V14.01,2013-09-25 23:40:00,
2013-09-25 19:41:00,55.3,47.9,29.88,ESE,119,0.0,1.0,76,0.00,,CLR,0.00,0.00,VWS V14.01,2013-09-25 23:41:00,
2013-09-25 19:45:00,56.1,47.9,29.86,East,83,5.0,7.0,74,0.00,,CLR,0.00,0.00,VWS V14.01,2013-09-25 23:45:00,
2013-09-25 19:46:00,55.3,47.9,29.89,ESE,119,0.0,1.0,76,0.00,,CLR,0.00,0.00,VWS V14.01,2013-09-25 23:46:00,
2013-09-25 19:50:00,55.9,47.4,29.86,ESE,109,6.0,8.0,73,0.00,,CLR,0.00,0.00,VWS V14.01,2013-09-25 23:50:00,
2013-09-25 19:51:00,55.2,47.8,29.89,ESE,119,0.0,1.0,76,0.00,,CLR,0.00,0.00,VWS V14.01,2013-09-25 23:51:00,
2013-09-25 19:55:00,55.9,47.7,29.86,ESE,113,4.0,7.0,74,0.00,,CLR,0.00,0.00,VWS V14.01,2013-09-25 23:55:00,
2013-09-25 19:57:00,55.2,48.1,29.88,ESE,119,0.0,1.0,77,0.00,,CLR,0.00,0.00,VWS V14.01,2013-09-25 23:57:00,
2013-09-25 20:00:00,55.9,47.7,29.87,ESE,119,2.0,6.0,74,0.00,,CLR,0.00,0.00,VWS V14.01,2013-09-26 00:00:00,
2013-09-25 20:02:00,55.1,48.0,29.88,ESE,119,0.0,1.0,77,0.00,,CLR,0.00,0.00,VWS V14.01,2013-09-26 00:02:00,
2013-09-25 20:05:00,55.8,47.7,29.87,ESE,119,2.0,5.0,74,0.00,,CLR,0.00,0.00,VWS V14.01,2013-09-26 00:05:00,
2013-09-25 20:07:00,55.0,47.9,29.89,ESE,119,0.0,0.0,77,0.00,,CLR,0.00,0.00,VWS V14.01,2013-09-26 00:07:00,
2013-09-25 20:10:00,55.7,47.5,29.87,ESE,119,2.0,4.0,74,0.00,,CLR,0.00,0.00,VWS V14.01,2013-09-26 00:10:00,
2013-09-25 20:12:00,55.0,47.9,29.89,ESE,119,0.0,1.0,77,0.00,,CLR,0.00,0.00,VWS V14.01,2013-09-26 00:12:00,
2013-09-25 20:15:00,55.7,47.9,29.87,ESE,119,1.0,5.0,75,0.00,,CLR,0.00,0.00,VWS V14.01,2013-09-26 00:15:00,
2013-09-25 20:17:00,54.8,48.1,29.89,ESE,119,0.0,0.0,78,0.00,,CLR,0.00,0.00,VWS V14.01,2013-09-26 00:17:00,
2013-09-25 20:20:00,55.6,47.8,29.88,ESE,119,1.0,4.0,75,0.00,,CLR,0.00,0.00,VWS V14.01,2013-09-26 00:20:00,
2013-09-25 20:22:00,54.7,48.3,29.89,ESE,119,0.0,0.0,79,0.00,,CLR,0.00,0.00,VWS V14.01,2013-09-26 00:22:00,
2013-09-25 20:25:00,55.6,47.8,29.88,ESE,119,0.0,2.0,75,0.00,,CLR,0.00,0.00,VWS V14.01,2013-09-26 00:25:00,
2013-09-25 20:27:00,54.6,48.2,29.89,ESE,119,0.0,0.0,79,0.00,,CLR,0.00,0.00,VWS V14.01,2013-09-26 00:27:00,
2013-09-25 20:30:00,55.5,48.1,29.88,ESE,119,0.0,2.0,76,0.00,,CLR,0.00,0.00,VWS V14.01,2013-09-26 00:30:00,
2013-09-25 20:32:00,54.4,48.0,29.89,ESE,119,0.0,0.0,79,0.00,,CLR,0.00,0.00,VWS V14.01,2013-09-26 00:32:00,
2013-09-25 20:35:00,55.4,48.0,29.88,ESE,119,0.0,2.0,76,0.00,,CLR,0.00,0.00,VWS V14.01,2013-09-26 00:35:00,
2013-09-25 20:37:00,54.2,47.8,29.90,ESE,119,0.0,0.0,79,0.00,,CLR,0.00,0.00,VWS V14.01,2013-09-26 00:37:00,
2013-09-25 20:40:00,55.3,47.9,29.88,ESE,119,0.0,0.0,76,0.00,,CLR,0.00,0.00,VWS V14.01,2013-09-26 00:40:00,
2013-09-25 20:43:00,53.9,47.5,29.90,ESE,119,0.0,0.0,79,0.00,,CLR,0.00,0.00,VWS V14.01,2013-09-26 00:43:00,
2013-09-25 20:45:00,55.3,47.9,29.88,ESE,119,0.0,1.0,76,0.00,,CLR,0.00,0.00,VWS V14.01,2013-09-26 00:45:00,
2013-09-25 20:48:00,53.7,47.7,29.89,ESE,119,0.0,0.0,80,0.00,,CLR,0.00,0.00,VWS V14.01,2013-09-26 00:48:00,
2013-09-25 20:50:00,55.3,47.9,29.89,ESE,119,0.0,1.0,76,0.00,,CLR,0.00,0.00,VWS V14.01,2013-09-26 00:50:00,
2013-09-25 20:53:00,53.3,47.6,29.89,ESE,119,0.0,0.0,81,0.00,,CLR,0.00,0.00,VWS V14.01,2013-09-26 00:53:00,
2013-09-25 20:55:00,55.2,47.8,29.89,ESE,119,0.0,1.0,76,0.00,,CLR,0.00,0.00,VWS V14.01,2013-09-26 00:55:00,
2013-09-25 20:58:00,53.0,47.7,29.89,ESE,119,0.0,0.0,82,0.00,,CLR,0.00,0.00,VWS V14.01,2013-09-26 00:58:00,
2013-09-25 21:00:00,55.2,48.1,29.88,ESE,119,0.0,1.0,77,0.00,,CLR,0.00,0.00,VWS V14.01,2013-09-26 01:00:00,
2013-09-25 21:03:00,52.7,47.7,29.90,ESE,119,0.0,0.0,83,0.00,,CLR,0.00,0.00,VWS V14.01,2013-09-26 01:03:00,
2013-09-25 21:05:00,55.1,48.0,29.88,ESE,119,0.0,1.0,77,0.00,,CLR,0.00,0.00,VWS V14.01,2013-09-26 01:05:00,
2013-09-25 21:08:00,52.3,47.3,29.90,ESE,119,0.0,0.0,83,0.00,,CLR,0.00,0.00,VWS V14.01,2013-09-26 01:08:00,
2013-09-25 21:10:00,55.0,47.9,29.89,ESE,119,0.0,0.0,77,0.00,,CLR,0.00,0.00,VWS V14.01,2013-09-26 01:10:00,
2013-09-25 21:14:00,52.0,47.3,29.90,ESE,119,0.0,0.0,84,0.00,,CLR,0.00,0.00,VWS V14.01,2013-09-26 01:14:00,
2013-09-25 21:15:00,55.0,47.9,29.89,ESE,119,0.0,1.0,77,0.00,,CLR,0.00,0.00,VWS V14.01,2013-09-26 01:15:00,
2013-09-25 21:19:00,51.7,47.0,29.90,ESE,119,0.0,0.0,84,0.00,,CLR,0.00,0.00,VWS V14.01,2013-09-26 01:19:00,
2013-09-25 21:20:00,54.9,48.2,29.89,ESE,119,0.0,1.0,78,0.00,,CLR,0.00,0.00,VWS V14.01,2013-09-26 01:20:00,
2013-09-25 21:24:00,51.6,47.2,29.90,ESE,119,0.0,0.0,85,0.00,,CLR,0.00,0.00,VWS V14.01,2013-09-26 01:24:00,
2013-09-25 21:25:00,54.7,48.3,29.89,ESE,119,0.0,0.0,79,0.00,,CLR,0.00,0.00,VWS V14.01,2013-09-26 01:25:00,
2013-09-25 21:29:00,51.5,47.2,29.91,ESE,119,0.0,0.0,85,0.00,,CLR,0.00,0.00,VWS V14.01,2013-09-26 01:29:00,
2013-09-25 21:30:00,54.6,48.2,29.89,ESE,119,0.0,0.0,79,0.00,,CLR,0.00,0.00,VWS V14.01,2013-09-26 01:30:00,
2013-09-25 21:34:00,51.4,47.4,29.91,ESE,119,0.0,0.0,86,0.00,,CLR,0.00,0.00,VWS V14.01,2013-09-26 01:34:00,
2013-09-25 21:35:00,54.4,48.0,29.89,ESE,119,0.0,0.0,79,0.00,,CLR,0.00,0.00,VWS V14.01,2013-09-26 01:35:00,
2013-09-25 21:39:00,51.4,47.4,29.91,ESE,119,0.0,0.0,86,0.00,,CLR,0.00,0.00,VWS V14.01,2013-09-26 01:39:00,
2013-09-25 21:40:00,54.3,47.9,29.90,ESE,119,0.0,0.0,79,0.00,,CLR,0.00,0.00,VWS V14.01,2013-09-26 01:40:00,
2013-09-25 21:44:00,51.6,47.6,29.91,ESE,119,0.0,0.0,86,0.00,,CLR,0.00,0.00,VWS V14.01,2013-09-26 01:44:00,
2013-09-25 21:45:00,54.0,47.6,29.90,ESE,119,0.0,0.0,79,0.00,,CLR,0.00,0.00,VWS V14.01,2013-09-26 01:45:00,
2013-09-25 21:50:00,51.8,47.8,29.91,ESE,119,0.0,0.0,86,0.00,,CLR,0.00,0.00,VWS V14.01,2013-09-26 01:50:00,
2013-09-25 21:55:00,52.1,48.0,29.91,ESE,119,1.0,2.0,86,0.00,,CLR,0.00,0.00,VWS V14.01,2013-09-26 01:55:00,
2013-09-25 22:00:00,52.2,48.2,29.92,ESE,119,0.0,1.0,86,0.00,,CLR,0.00,0.00,VWS V14.01,2013-09-26 02:00:00,
2013-09-25 22:05:00,52.4,48.0,29.91,ESE,119,0.0,1.0,85,0.00,,CLR,0.00,0.00,VWS V14.01,2013-09-26 02:05:00,
2013-09-25 22:10:00,52.6,48.2,29.91,ESE,119,0.0,0.0,85,0.00,,CLR,0.00,0.00,VWS V14.01,2013-09-26 02:10:00,
2013-09-25 22:15:00,52.7,48.3,29.91,ESE,119,0.0,1.0,85,0.00,,CLR,0.00,0.00,VWS V14.01,2013-09-26 02:15:00,
2013-09-25 22:20:00,52.7,48.3,29.92,ESE,119,1.0,2.0,85,0.00,,CLR,0.00,0.00,VWS V14.01,2013-09-26 02:20:00,
2013-09-25 22:25:00,52.8,48.4,29.92,ESE,119,0.0,1.0,85,0.00,,CLR,0.00,0.00,VWS V14.01,2013-09-26 02:25:00,
2013-09-25 22:30:00,51.5,47.2,29.90,ESE,119,0.0,0.0,85,0.00,,CLR,0.00,0.00,VWS V14.01,2013-09-26 02:30:00,
2013-09-25 22:31:00,52.9,48.5,29.92,ESE,119,0.0,4.0,85,0.00,,CLR,0.00,0.00,VWS V14.01,2013-09-26 02:31:00,
2013-09-25 22:35:00,51.4,47.0,29.91,ESE,119,0.0,0.0,85,0.00,,CLR,0.00,0.00,VWS V14.01,2013-09-26 02:35:00,
2013-09-25 22:36:00,53.0,48.3,29.92,ESE,119,0.0,2.0,84,0.00,,CLR,0.00,0.00,VWS V14.01,2013-09-26 02:36:00,
2013-09-25 22:40:00,51.4,47.4,29.91,ESE,119,0.0,0.0,86,0.00,,CLR,0.00,0.00,VWS V14.01,2013-09-26 02:40:00,
2013-09-25 22:41:00,53.0,48.3,29.92,ESE,119,1.0,1.0,84,0.00,,CLR,0.00,0.00,VWS V14.01,2013-09-26 02:41:00,
2013-09-25 22:45:00,51.4,47.4,29.91,ESE,119,0.0,0.0,86,0.00,,CLR,0.00,0.00,VWS V14.01,2013-09-26 02:45:00,
2013-09-25 22:46:00,53.1,48.4,29.92,ESE,119,0.0,4.0,84,0.00,,CLR,0.00,0.00,VWS V14.01,2013-09-26 02:46:00,
2013-09-25 22:50:00,51.7,47.7,29.91,ESE,119,0.0,0.0,86,0.00,,CLR,0.00,0.00,VWS V14.01,2013-09-26 02:50:00,
2013-09-25 22:51:00,53.2,48.5,29.92,ESE,119,1.0,2.0,84,0.00,,CLR,0.00,0.00,VWS V14.01,2013-09-26 02:51:00,
2013-09-25 22:55:00,51.9,47.8,29.91,ESE,119,0.0,0.0,86,0.00,,CLR,0.00,0.00,VWS V14.01,2013-09-26 02:55:00,
2013-09-25 22:56:00,53.2,48.5,29.92,ESE,119,1.0,2.0,84,0.00,,CLR,0.00,0.00,VWS V14.01,2013-09-26 02:56:00,
2013-09-25 23:00:00,52.1,48.0,29.92,ESE,119,0.0,2.0,86,0.00,,CLR,0.00,0.00,VWS V14.01,2013-09-26 03:00:00,
2013-09-25 23:01:00,53.1,48.4,29.92,ESE,119,0.0,4.0,84,0.00,,CLR,0.00,0.00,VWS V14.01,2013-09-26 03:01:00,
2013-09-25 23:05:00,52.3,48.2,29.92,ESE,119,1.0,1.0,86,0.00,,CLR,0.00,0.00,VWS V14.01,2013-09-26 03:05:00,
2013-09-25 23:06:00,53.2,48.8,29.92,ESE,119,0.0,0.0,85,0.00,,CLR,0.00,0.00,VWS V14.01,2013-09-26 03:06:00,
2013-09-25 23:10:00,52.5,48.1,29.91,ESE,119,0.0,1.0,85,0.00,,CLR,0.00,0.00,VWS V14.01,2013-09-26 03:10:00,
2013-09-25 23:12:00,53.2,48.8,29.93,ESE,119,0.0,0.0,85,0.00,,CLR,0.00,0.00,VWS V14.01,2013-09-26 03:12:00,
2013-09-25 23:15:00,52.6,48.2,29.91,ESE,119,0.0,1.0,85,0.00,,CLR,0.00,0.00,VWS V14.01,2013-09-26 03:15:00,
2013-09-25 23:17:00,53.2,48.5,29.92,ESE,119,2.0,4.0,84,0.00,,CLR,0.00,0.00,VWS V14.01,2013-09-26 03:17:00,
2013-09-25 23:20:00,52.7,48.3,29.91,ESE,119,0.0,1.0,85,0.00,,CLR,0.00,0.00,VWS V14.01,2013-09-26 03:20:00,
2013-09-25 23:22:00,53.2,48.5,29.92,SSW,193,1.0,1.0,84,0.00,,CLR,0.00,0.00,VWS V14.01,2013-09-26 03:22:00,
2013-09-25 23:25:00,52.7,48.3,29.92,ESE,119,1.0,2.0,85,0.00,,CLR,0.00,0.00,VWS V14.01,2013-09-26 03:25:00,
2013-09-25 23:27:00,53.2,48.5,29.92,SSW,193,0.0,1.0,84,0.00,,CLR,0.00,0.00,VWS V14.01,2013-09-26 03:27:00,
2013-09-25 23:30:00,52.9,48.5,29.92,ESE,119,0.0,1.0,85,0.00,,CLR,0.00,0.00,VWS V14.01,2013-09-26 03:30:00,
2013-09-25 23:32:00,53.2,48.8,29.93,SSW,193,0.0,0.0,85,0.00,,CLR,0.00,0.00,VWS V14.01,2013-09-26 03:32:00,
2013-09-25 23:35:00,52.9,48.2,29.92,ESE,119,0.0,4.0,84,0.00,,CLR,0.00,0.00,VWS V14.01,2013-09-26 03:35:00,
2013-09-25 23:37:00,53.2,48.5,29.93,SSW,193,0.0,0.0,84,0.00,,CLR,0.00,0.00,VWS V14.01,2013-09-26 03:37:00,
2013-09-25 23:40:00,53.0,48.3,29.92,ESE,119,0.0,2.0,84,0.00,,CLR,0.00,0.00,VWS V14.01,2013-09-26 03:40:00,
2013-09-25 23:42:00,53.2,48.8,29.92,SSW,194,0.0,0.0,85,0.00,,CLR,0.00,0.00,VWS V14.01,2013-09-26 03:42:00,
2013-09-25 23:45:00,53.0,48.3,29.92,ESE,119,0.0,1.0,84,0.00,,CLR,0.00,0.00,VWS V14.01,2013-09-26 03:45:00,
2013-09-25 23:47:00,53.2,48.5,29.92,SSW,194,0.0,0.0,84,0.00,,CLR,0.00,0.00,VWS V14.01,2013-09-26 03:47:00,
2013-09-25 23:50:00,53.1,48.4,29.92,ESE,119,0.0,4.0,84,0.00,,CLR,0.00,0.00,VWS V14.01,2013-09-26 03:50:00,
2013-09-25 23:52:00,53.2,48.8,29.92,SSW,194,0.0,0.0,85,0.00,,CLR,0.00,0.00,VWS V14.01,2013-09-26 03:52:00,
2013-09-25 23:55:00,53.2,48.5,29.92,ESE,119,0.0,2.0,84,0.00,,CLR,0.00,0.00,VWS V14.01,2013-09-26 03:55:00,
2013-09-25 23:58:00,53.2,48.8,29.93,SSW,194,0.0,0.0,85,0.00,,OVC044,0.00,0.00,VWS V14.01,2013-09-26 03:58:00,